Weather History for KI35 - November, 2011

Change the Weather History Date:

Wednesday, November 23, 2011

  Actual Average (KLOZ) Record (KLOZ)
Temperature  
Mean Temperature 49 °F 45 °F  
Max Temperature 59 °F 55 °F 74 °F (1999)
Min Temperature 39 °F 35 °F 13 °F (1970)
Degree Days  
Heating Degree Days 16 20  
Month to date heating degree days 376  
Since 1 July heating degree days 682  
Cooling Degree Days 0 0  
Month to date cooling degree days 0  
Moisture  
Dew Point 43 °F    
Average Humidity 86    
Maximum Humidity 100    
Minimum Humidity 62    
Precipitation  
Precipitation 0.00 in 0.14 in 1.28 in (1959)
Month to date precipitation 2.84  
Sea Level Pressure  
Sea Level Pressure 30.10 in    
Wind  
Wind Speed 7 mph ()    
Max Wind Speed 23 mph    
Max Gust Speed 31 mph    
Visibility 9.0 miles    
Events      
T = Trace of Precipitation, MM = Missing Value Source: Averaged Metar Reports

Daily Weather History Graph

Daily Weather History Graph

Search for Another Location

Airport or City:

Trip Planner

Search our weather history database for the weather conditions in past years. The results will help you decide how hot, cold, wet, or windy it might be!

Date:

Astronomy

Nov. 23, 2011 Rise Set
Actual Time 7:19 AM EST 5:19 PM EST
Civil Twilight 6:51 AM EST 5:47 PM EST
Nautical Twilight 6:19 AM EST 6:19 PM EST
Astronomical Twilight 5:48 AM EST 6:50 PM EST
Moon 5:23 AM EST (11/23) 3:59 PM EST (11/23)
Length of Visible Light 10h 56m
Length of Day
10h 00m
Waning Crescent, 4% of the Moon is Illuminated
Nov 23
Waning Crescent
Nov 25
New
Dec 2
First Quarter
Dec 10
Full
Dec 17
Last Quarter

Hourly Weather History & Observations

Time (EST) Temp. Windchill Dew Point Humidity Pressure Visibility Wind Dir Wind Speed Gust Speed Precip Events Conditions
12:15 AM 59.0 °F - 57.2 °F 94% 29.84 in 10.0 mi WNW 3.5 mph - N/A   Overcast
12:35 AM 59.0 °F - 57.2 °F 94% 29.84 in 5.0 mi WNW 11.5 mph - N/A   Overcast
12:55 AM 59.0 °F - 57.2 °F 94% 29.84 in 10.0 mi WSW 5.8 mph - N/A   Overcast
1:15 AM 59.0 °F - 57.2 °F 94% 29.84 in 10.0 mi WSW 3.5 mph - N/A   Mostly Cloudy
1:35 AM 59.0 °F - 57.2 °F 94% 29.84 in 10.0 mi West 10.4 mph - N/A   Overcast
1:55 AM 59.0 °F - 57.2 °F 94% 29.84 in 7.0 mi West 10.4 mph - N/A   Overcast
2:15 AM 59.0 °F - 57.2 °F 94% 29.83 in 10.0 mi West 4.6 mph - N/A   Overcast
2:35 AM 59.0 °F - 55.4 °F 88% 29.84 in 1.8 mi West 11.5 mph 25.3 mph N/A   Overcast
2:55 AM 55.4 °F - 53.6 °F 94% 29.85 in 10.0 mi West 23.0 mph 31.1 mph N/A   Overcast
3:35 AM 53.6 °F - 51.8 °F 94% 29.87 in 10.0 mi West 11.5 mph 16.1 mph N/A   Overcast
3:55 AM 51.8 °F - 50.0 °F 94% 29.89 in 10.0 mi West 12.7 mph 18.4 mph N/A   Overcast
4:35 AM 50.0 °F - 48.2 °F 94% 29.90 in 5.0 mi West 13.8 mph 20.7 mph N/A   Overcast
4:55 AM 50.0 °F - 48.2 °F 94% 29.91 in 7.0 mi West 15.0 mph 26.5 mph N/A   Overcast
5:15 AM 50.0 °F - 46.4 °F 87% 29.93 in 10.0 mi WNW 19.6 mph 26.5 mph N/A   Overcast
5:35 AM 50.0 °F - 46.4 °F 87% 29.94 in 10.0 mi West 10.4 mph 25.3 mph N/A   Overcast
6:15 AM 46.4 °F 39.8 °F 44.6 °F 93% 29.97 in 5.0 mi West 16.1 mph 23.0 mph N/A   Overcast
6:35 AM 46.4 °F 39.8 °F 44.6 °F 93% 29.99 in 10.0 mi NW 16.1 mph 23.0 mph N/A   Overcast
7:35 AM 44.6 °F 38.8 °F 42.8 °F 93% 30.04 in 5.0 mi West 11.5 mph 20.7 mph N/A   Overcast
7:55 AM 44.6 °F 40.2 °F 42.8 °F 93% 30.05 in 7.0 mi West 8.1 mph 17.3 mph N/A   Overcast
8:35 AM 44.6 °F 40.7 °F 42.8 °F 93% 30.07 in 7.0 mi West 6.9 mph - N/A   Overcast
8:55 AM 44.6 °F 38.8 °F 42.8 °F 93% 30.09 in 5.0 mi West 11.5 mph - N/A   Overcast
9:15 AM 44.6 °F 39.2 °F 42.8 °F 93% 30.09 in 7.0 mi WNW 10.4 mph 23.0 mph N/A   Overcast
9:35 AM 44.6 °F 40.7 °F 42.8 °F 93% 30.10 in 10.0 mi WNW 6.9 mph 26.5 mph N/A   Overcast
9:55 AM 44.6 °F 39.7 °F 42.8 °F 93% 30.11 in 10.0 mi NNW 9.2 mph - N/A   Overcast
10:15 AM 44.6 °F 41.4 °F 42.8 °F 93% 30.12 in 10.0 mi WSW 5.8 mph - N/A   Overcast
10:35 AM 44.6 °F 40.7 °F 42.8 °F 93% 30.13 in 10.0 mi West 6.9 mph - N/A   Overcast
10:55 AM 44.6 °F 39.7 °F 42.8 °F 93% 30.13 in 10.0 mi West 9.2 mph - N/A   Overcast
11:15 AM 44.6 °F 40.2 °F 42.8 °F 93% 30.13 in 10.0 mi WNW 8.1 mph - N/A   Overcast
11:35 AM 46.4 °F 43.5 °F 42.8 °F 87% 30.14 in 10.0 mi WNW 5.8 mph - N/A   Overcast
11:55 AM 46.4 °F 43.5 °F 42.8 °F 87% 30.13 in 10.0 mi NNE 5.8 mph - N/A   Overcast
12:35 PM 46.4 °F 42.4 °F 41.0 °F 81% 30.14 in 10.0 mi North 8.1 mph - N/A   Overcast
12:55 PM 48.2 °F - 41.0 °F 76% 30.15 in 10.0 mi North 3.5 mph - N/A   Overcast
1:15 PM 50.0 °F - 41.0 °F 71% 30.15 in 10.0 mi WNW 3.5 mph - N/A   Overcast
1:35 PM 50.0 °F - 41.0 °F 71% 30.15 in 10.0 mi Calm Calm - N/A   Overcast
1:55 PM 50.0 °F - 41.0 °F 71% 30.15 in 10.0 mi NNE 6.9 mph - N/A   Overcast
2:15 PM 50.0 °F - 41.0 °F 71% 30.15 in 10.0 mi NNW 3.5 mph - N/A   Overcast
2:35 PM 50.0 °F - 39.2 °F 66% 30.14 in 10.0 mi North 5.8 mph - N/A   Overcast
2:55 PM 50.0 °F - 39.2 °F 66% 30.15 in 10.0 mi NNW 4.6 mph - N/A   Mostly Cloudy
3:35 PM 50.0 °F - 37.4 °F 62% 30.16 in 10.0 mi NW 5.8 mph - N/A   Mostly Cloudy
3:55 PM 50.0 °F - 37.4 °F 62% 30.16 in 10.0 mi NNW 6.9 mph - N/A   Scattered Clouds
4:15 PM 50.0 °F - 37.4 °F 62% 30.17 in 10.0 mi North 4.6 mph - N/A   Scattered Clouds
4:35 PM 50.0 °F - 37.4 °F 62% 30.18 in 10.0 mi WNW 6.9 mph - N/A   Mostly Cloudy
4:55 PM 50.0 °F - 37.4 °F 62% 30.18 in 10.0 mi West 5.8 mph - N/A   Overcast
5:15 PM 48.2 °F - 37.4 °F 66% 30.19 in 10.0 mi WNW 5.8 mph - N/A   Mostly Cloudy
5:35 PM 46.4 °F 44.3 °F 37.4 °F 71% 30.20 in 10.0 mi West 4.6 mph - N/A   Mostly Cloudy
5:55 PM 46.4 °F 45.2 °F 37.4 °F 71% 30.21 in 10.0 mi West 3.5 mph - N/A   Scattered Clouds
6:15 PM 46.4 °F 45.2 °F 37.4 °F 71% 30.22 in 10.0 mi WSW 3.5 mph - N/A   Scattered Clouds
6:35 PM 44.6 °F - 37.4 °F 76% 30.23 in 10.0 mi Calm Calm - N/A   Scattered Clouds
6:55 PM 44.6 °F - 37.4 °F 76% 30.24 in 10.0 mi Calm Calm - N/A   Scattered Clouds
7:15 PM 44.6 °F - 39.2 °F 81% 30.24 in 10.0 mi Calm Calm - N/A   Mostly Cloudy
7:55 PM 42.8 °F - 39.2 °F 87% 30.25 in 10.0 mi Calm Calm - N/A   Mostly Cloudy
8:15 PM 42.8 °F - 39.2 °F 87% 30.26 in 10.0 mi Calm Calm - N/A   Mostly Cloudy
8:35 PM 42.8 °F - 39.2 °F 87% 30.26 in 10.0 mi Calm Calm - N/A   Overcast
8:55 PM 41.0 °F 39.0 °F 39.2 °F 93% 30.27 in 10.0 mi West 3.5 mph - N/A   Overcast
9:35 PM 41.0 °F - 39.2 °F 93% 30.28 in 10.0 mi Calm Calm - N/A   Mostly Cloudy
9:55 PM 41.0 °F - 41.0 °F 100% 30.29 in 10.0 mi Calm Calm - N/A   Overcast
10:15 PM 41.0 °F - 39.2 °F 93% 30.29 in 10.0 mi Calm Calm - N/A   Mostly Cloudy
10:35 PM 39.2 °F - 39.2 °F 100% 30.28 in 1.8 mi Calm Calm - N/A   Overcast
10:55 PM 39.2 °F - 39.2 °F 100% 30.28 in 7.0 mi Calm Calm - N/A   Overcast
11:15 PM 39.2 °F - 39.2 °F 100% 30.29 in 10.0 mi Calm Calm - N/A   Mostly Cloudy
11:35 PM 39.2 °F - 39.2 °F 100% 30.29 in 10.0 mi Calm Calm - N/A   Mostly Cloudy
11:55 PM 39.2 °F - 39.2 °F 100% 30.29 in 10.0 mi Calm Calm - N/A   Mostly Cloudy